Temp
51 54 61 67 72 71 79 78 76 74 71 70 73 71 70 69 68 67 67 67 68 73
48 51 55 65 72 76 77 80 76 74 69 69 69 70 68 67 66 67 67 67 68 71
46 51 55 64 71 75 78 79 74 72 68 67 67 67 67 66 67 66 66 67 67 67
47 50 54 64 71 75 76 76 75 72 67 67 66 66 66 66 65 65 65 66 65 67
45 47 50 58 71 74 73 74 74 73 71 69 65 65 64 64 64 64 64 64 64 64
41 43 43 45 49 51 65 66 61 63 58 59 61 62 63 63 64 64 64 64 62 65
38 39 40 42 42 45 46 46 46 44 44 44 44 46 51 59 60 60 60 61 61 62
37 38 38 38 38 39 40 40 42 44 43 42 41 42 43 53 56 56 57 54 55 52
34 35 36 35 35 36 36 36 36 38 38 39 40 40 40 46 48 47 45 44 45 49
32 32 32 33 33 32 32 34 33 33 34 33 35 37 37 38 39 38 36 36 39 42
32 32 32 32 32 31 31 31 31 31 32 31 33 34 34 34 34 33 33 33 34 35
32 31 31 31 31 32 32 31 31 31 31 30 31 33 33 33 32 31 30 31 32 33
34 32 32 32 32 32 32 32 32 31 32 32 31 32 32 31 30 28 29 31 31 32
32 31 32 32 33 33 33 33 33 32 31 31 31 32 33 32 30 29 28 27 27 28
MSLP
1006.71 1005.57 1003.93 1002.38 1001.07 999.97 998.63 999.51 1000.33 1001.31 1002.14 1002.64 1003.15 1003.74 1004.51 1005.32 1006.20 1006.68 1007.09 1007.66 1008.22 1008.58
1006.07 1004.83 1003.38 1001.50 1000.16 999.14 998.59 997.94 999.47 1000.39 1001.45 1002.17 1002.52 1003.00 1003.61 1004.25 1005.19 1005.74 1006.22 1006.72 1007.25 1007.13
1004.96 1003.54 1002.42 1000.72 998.93 998.04 997.70 997.41 998.83 999.88 1000.69 1001.31 1001.81 1002.29 1002.92 1003.49 1004.31 1005.16 1005.66 1006.01 1006.32 1006.82
1003.94 1002.56 1001.08 999.37 997.82 997.04 997.13 997.47 998.17 999.12 1000.00 1000.44 1001.19 1001.64 1002.22 1002.85 1003.68 1004.68 1005.22 1005.60 1006.12 1006.03
1004.01 1002.21 1000.05 998.50 997.24 996.26 996.67 997.26 997.63 998.32 999.09 999.60 1000.70 1001.32 1001.84 1002.66 1003.45 1004.28 1004.71 1005.32 1005.66 1006.03
1004.45 1002.53 1001.13 1000.74 1000.23 999.33 997.92 998.49 999.32 999.05 999.84 1000.40 1000.92 1001.06 1001.49 1002.23 1003.14 1003.82 1004.40 1004.83 1005.27 1005.82
1004.78 1003.46 1003.07 1002.74 1002.01 1001.96 1001.97 1001.43 1001.32 1001.43 1002.26 1002.71 1002.79 1002.59 1002.42 1002.50 1003.10 1003.67 1004.19 1004.83 1005.31 1005.77
1006.56 1005.59 1005.24 1005.06 1004.94 1004.51 1004.13 1004.17 1004.15 1003.79 1003.76 1003.94 1004.11 1004.60 1004.36 1003.56 1003.73 1004.43 1004.80 1005.64 1006.21 1007.10
1008.72 1008.02 1007.69 1007.29 1007.37 1006.55 1006.81 1006.69 1006.38 1006.25 1006.12 1005.69 1006.37 1006.29 1005.64 1005.09 1005.73 1006.00 1006.57 1007.04 1007.58 1007.68
1010.86 1009.36 1009.81 1009.80 1009.46 1008.86 1009.14 1009.35 1008.84 1008.95 1008.71 1008.17 1007.95 1008.29 1007.50 1007.60 1008.18 1008.74 1009.00 1009.28 1009.09 1008.94
1012.09 1012.31 1011.94 1011.71 1011.26 1011.00 1011.42 1011.52 1010.62 1010.71 1010.34 1010.10 1010.09 1009.68 1009.56 1009.41 1010.13 1009.91 1011.61 1010.86 1010.40 1010.50
1015.26 1014.55 1013.97 1013.36 1013.13 1012.52 1013.16 1011.97 1011.56 1012.67 1011.83 1012.46 1010.77 1010.72 1011.24 1010.70 1011.50 1012.57 1012.28 1011.86 1011.67 1011.83
1017.21 1016.66 1016.31 1015.86 1014.92 1014.35 1013.93 1013.27 1012.69 1013.24 1014.40 1013.97 1013.73 1012.17 1013.42 1012.59 1012.91 1013.28 1013.01 1013.43 1013.26 1012.65
1018.63 1018.13 1017.71 1016.91 1016.19 1015.81 1015.37 1015.01 1015.19 1014.75 1014.31 1014.34 1015.43 1015.62 1014.90 1014.27 1014.24 1014.74 1014.66 1013.79 1013.66 1013.96
Wind_Speed
19 12 16 19 17 14 14 14 15 16 16 17 19 16 14 12 12 14 13 16 14 13
17 18 18 23 20 15 20 13 15 16 17 17 16 16 16 12 14 14 14 14 15 11
17 17 18 22 22 19 19 14 14 17 16 15 16 15 15 13 13 14 12 11 13 13
13 14 17 21 19 18 17 14 15 16 15 16 15 14 14 13 12 15 13 11 13 14
12 12 13 16 15 14 15 15 15 16 17 16 12 11 12 11 11 13 16 13 10 10
13 14 19 18 16 18 8 6 8 6 8 5 4 8 8 9 10 11 12 9 7 8
18 21 20 19 21 19 17 17 14 16 15 14 13 12 9 4 7 6 6 5 4 3
20 21 21 21 21 20 20 18 16 13 15 16 16 12 9 6 8 6 8 10 10 9
20 21 21 21 21 21 21 20 19 19 18 17 12 23 23 15 10 12 11 9 10 9
19 23 21 20 19 21 21 18 20 19 18 20 19 24 26 23 14 13 14 13 10 9
23 20 19 18 20 18 16 15 19 17 19 20 19 30 23 20 12 13 11 14 14 11
19 20 18 17 17 17 12 16 18 12 18 19 20 36 30 19 14 11 11 11 16 12
18 18 18 17 16 14 12 13 15 18 14 25 16 33 30 22 10 12 10 10 10 23
18 18 18 17 17 16 16 16 15 16 18 21 21 18 26 27 10 7 7 9 10 9
Wind_Direction
284 272 265 252 256 258 209 216 203 208 208 211 208 197 192 191 201 200 201 197 201 223
281 272 260 255 255 247 260 205 204 199 203 209 207 201 191 191 199 200 201 203 211 211
285 272 259 257 245 239 243 221 200 201 197 199 202 196 192 192 199 200 205 200 203 215
297 286 266 249 244 236 236 222 209 203 194 195 200 194 196 197 191 199 200 201 209 211
325 328 18 3 260 225 224 225 218 211 200 194 193 191 191 191 190 194 202 197 200 213
3 18 32 24 15 26 9 360 25 49 60 77 130 158 162 179 184 196 192 177 185 208
26 32 32 31 31 33 36 46 46 55 54 46 42 36 35 135 146 136 114 130 168 158
30 36 39 38 34 38 38 37 39 46 53 49 40 20 5 31 79 93 79 60 48 51
29 35 40 42 38 41 41 35 38 36 41 46 39 26 30 41 49 58 55 51 36 24
26 38 34 36 40 44 41 38 43 39 38 45 39 33 44 47 51 43 46 37 36 29
29 33 34 33 40 50 37 38 47 40 36 44 40 38 39 53 56 65 34 45 37 27
29 32 28 32 32 42 36 43 49 47 41 38 44 40 33 44 41 49 38 36 36 28
31 33 32 30 31 32 38 43 42 47 45 39 43 40 35 39 39 31 31 33 32 30
28 32 28 29 30 29 35 41 37 39 38 33 32 30 39 36 33 38 26 30 26 25